Location: Unspecified
(17.6330°N, 0.0000°E)
Time: 15:57:46
(UTC+00:00)

Tiros 1 despin weight - Pass Details

Date: 16 August 2020
Orbit: 593 x 642 km, 48.2° (Epoch: 23 September)

Event Time Altitude Azimuth Distance (km) Brightness Sun altitude
Exits shadow 03:16:16 17° 15° (NNE) 1,556 ? -33.3°
Drops below altitude 10° 03:17:32 10° 23° (NNE) 1,985 ? -33.0°
Sets 03:19:58 0° 32° (NNE) 2,883 ? -32.5°
